Regional Weather Roundup
Issued by NWS

Home | Current Version | Previous Version | Graphics & Text | Print | Product List | Glossary On
Versions: 1 2 3 4 5 6 7 8 9 10 11 12 13 14 15 16 17 18 19 20 21 22 23 24 25 26 27 28 29 30 31 32 33 34 35 36 37 38 39 40 41 42 43 44 45 46 47 48 49 50
000
ASUS43 KMKX 170221
RWRWI

WISCONSIN REGIONAL WEATHER ROUNDUP
NATIONAL WEATHER SERVICE MILWAUKEE/SULLIVAN WI
900 PM CDT WED AUG 16 2017

NOTE: "FAIR" INDICATES FEW OR NO CLOUDS BELOW 12,000 FEET WITH NO
SIGNIFICANT WEATHER AND/OR OBSTRUCTIONS TO VISIBILITY.

WIZ001-002-006>008-014>016-023>028-170300-
NORTHWEST WISCONSIN

CITY           SKY/WX    TMP DP  RH WIND       PRES   REMARKS
SUPERIOR ARPT    N/A     62  61  96 NE16G25   29.84S
ASHLAND        CLOUDY    65  61  87 NE6       29.85S
HAYWARD        CLOUDY    71  62  73 E9        29.82F
SIREN          LGT RAIN  71  64  78 E6        29.76F
CUMBERLAND     LGT RAIN  70  63  78 E10G17    29.77F
RICE LAKE      RAIN      71  64  79 E13G18    29.78F
CHETEK         CLOUDY    71  65  81 E10G22    29.77S
LADYSMITH      CLOUDY    71  63  75 E9        29.83F
EAU CLAIRE     LGT RAIN  71  66  84 E16G23    29.74S
MENOMONIE      HVY RAIN  68  68  99 E16       29.73S
NEW RICHMOND   LGT RAIN  69  67  93 E12G20    29.71S
OSCEOLA        RAIN      71  67  89 E14G20    29.73F
$$

WIZ003>005-009-010-017-018-170300-
NORTH CENTRAL WISCONSIN

CITY           SKY/WX    TMP DP  RH WIND       PRES   REMARKS
MANITOWISH WTR CLOUDY    67  61  80 SE6       29.89F
ARBOR VITAE    CLOUDY    69  60  73 SE9       29.90F
WOODRUFF       CLOUDY    69  60  73 SE9       29.90F
RHINELANDER    CLOUDY    66  60  81 E8        29.92S
EAGLE RIVER    CLOUDY    65  55  69 SE7       29.92S
LAND O LAKES   PTCLDY    65  56  73 SE7       29.93F
PHILLIPS       CLOUDY    68  61  79 E9        29.85F
TOMAHAWK         N/A     66  58  73 E5        29.90S
MEDFORD        CLOUDY    67  62  83 E13       29.85S
MERRILL        CLOUDY    68  63  83 E9        29.88F
$$

WIZ029-030-035-036-043>047-170300-
CENTRAL WISCONSIN

CITY           SKY/WX    TMP DP  RH WIND       PRES   REMARKS
WAUSAU         CLOUDY    68  62  81 E12       29.86S
MOSINEE        MOCLDY    68  64  88 E13       29.88S
MARSHFIELD     RAIN      70  63  78 E15G25    29.83S
STEVENS POINT  CLOUDY    68  64  89 E10G16    29.87S
WAUPACA        DRIZZLE   71  64  77 E10       29.88S
WAUTOMA        CLOUDY    69  66  90 E7        29.86F
WISC RAPIDS    LGT RAIN  70  66  87 SE10      29.85S
CAMP DOUGLAS   LGT RAIN  70  70 100 E15       29.80S
$$

WIZ011>013-019>022-031-037>040-048>050-170300-
NORTHEAST WISCONSIN

CITY           SKY/WX    TMP DP  RH WIND       PRES   REMARKS
ANTIGO         PTCLDY    65  61  88 SE10      29.92F
SHAWANO        CLOUDY    69  64  83 E8        29.89F
OCONTO         PTCLDY    67  63  85 E6        29.91F
STURGEON BAY   CLOUDY    66  64  93 E5        29.93S
GREEN BAY      CLOUDY    67  64  90 E9        29.90S
MANITOWOC      CLOUDY    67  64  90 NE3       29.90F
APPLETON       LGT RAIN  70  59  68 E8        29.88F
CLINTONVILLE   CLOUDY    68  61  77 E5        29.89S
OSHKOSH        CLOUDY    69  63  81 E7        29.87F
$$

WIZ032>034-041-042-053>061-170300-
SOUTHWEST WISCONSIN

CITY           SKY/WX    TMP DP  RH WIND       PRES   REMARKS
LA CROSSE      CLOUDY    76  72  87 SE12      29.73S
SPARTA         HVY RAIN  70  69  98 E12       29.77S
VIROQUA        CLOUDY    72  72 100 SE10      29.77F
BOSCOBEL       CLOUDY    76  72  87 VRB6      29.77R
PRAIRIE DU CHI CLOUDY    73  71  92 E8        29.74F
PLATTEVILLE    MOCLDY    73  73 100 SE9       29.80S
$$

WIZ056-057-062-063-064-067-068-170300-
SOUTH CENTRAL WISCONSIN

CITY           SKY/WX    TMP DP  RH WIND       PRES   REMARKS
REEDSBURG      CLOUDY    71  71 100 E9        29.80F
BARABOO/DELLS  HVY RAIN  70  68  93 SE12G23   29.82F
LONE ROCK      LGT RAIN  73  72  96 E6        29.79S
MINERAL POINT  CLOUDY    72  72 100 SE6       29.81S
MADISON        LGT RAIN  71  70  96 SE14      29.82F FOG
MIDDLETON      CLOUDY    73  73 100 SE12      29.83S
WATERTOWN      LGT RAIN  69  69 100 E8        29.85F
MONROE         RAIN      72  70  94 SE7       29.82R
JANESVILLE     RAIN      73  73 100 SE8       29.83F
$$

WIZ051-052-058>065-066-070>072-170300-
SOUTHEAST WISCONSIN

CITY           SKY/WX    TMP DP  RH WIND       PRES   REMARKS
MILWAUKEE      LGT RAIN  73  71  93 E7        29.88S
WAUKESHA       LGT RAIN  68  66  94 E9        29.89F
MILWAUKEE/TIMM LGT RAIN  70  66  88 E6        29.89F
RACINE         LGT RAIN  74  72  93 SE6       29.90S FOG
KENOSHA        CLOUDY    73  71  93 E8        29.88S
FOND DU LAC    MOCLDY    68  61  78 SE6       29.88S
SHEBOYGAN      LGT RAIN  68  67  96 NE5       29.89F
WEST BEND      RAIN      66  64  94 E3        29.89S
JUNEAU         LGT RAIN  67  65  94 E6        29.87F
$$

LSZ147-162-170300-
LAKE SUPERIOR

STATION/POSITION TIME  TEMP    WIND        PRES    WAVE
                       AIR SEA DIR/SP/G            HT/PER
                 (UTC) (F)     (DEG/KT/KT) (MB)    (FT/S)
W MID LAKE BUOY  0150   62 60   60/ 14/ 16 1012.0S   2/ 4
DEVILS ISLAND    0200   63      70/ 21/ 23 1010.7F
SAXON HARBOR     0140   65     200/  2/  3 1010.2F
$$

LMZ867-665-643>646-170300-
LAKE MICHIGAN

STATION/POSITION TIME  TEMP    WIND        PRES    WAVE
                       AIR SEA DIR/SP/G            HT/PER
                 (UTC) (F)     (DEG/KT/KT) (MB)    (FT/S)
S GREEN BAY BUOY 0200   68 72   90/ 12/ 16 1012.6
N MID LAKE BUOY  0150   69 68   80/  8/ 10 1013.9F   1
NORTHPORT PIER   0140   69     100/  5/  6 1013.5R
KEWAUNEE LAKESHO 0154   68      50/  4/  6 1012.1F
SHEBOYGAN LAKESH 0200   70      30/  7/  8 1011.6F
PORT WASHINGTON  0140   72      60/  4/  6 1012.9F
ATWATER BUOY     0109   71 72   90/  2/  4 1012.3F
MILWAUKEE LAKESH 0200   71      70/  6/  7   N/A
S MID LAKE BUOY  0150   75 73   90/  8/ 10 1011.9R   1
KENOSHA   LAKESH 0200   73     120/  7/  7 1011.5
$$

TC  - TEMPERATURE IN CELSIUS
VSB - VISIBILITY IN STATUTE MILES
WCI - WIND CHILL INDEX
HX  - HEAT INDEX




USA.gov is the U.S. government's official web portal to all federal, state and local government web resources and services.